Location: *
(58.7167°N, 26.1833°E)
Time: 08:13:39
(UTC+00:00)

Okean 1 Rocket - Pass Details

Date: 25 August 2019
Orbit: 606 x 635 km, 82.5° (Epoch: 18 September)

Event Time Altitude Azimuth Distance (km) Brightness Sun altitude
Exits shadow 21:42:33 25° 237° (WSW) 1,259 4.4 -20.3°
Maximum altitude 21:44:38 41° 292° (WNW) 888 4.0 -20.4°
Drops below altitude 10° 21:48:48 10° 4° (N) 1,975 6.8 -20.4°
Sets 21:51:08 0° 12° (NNE) 2,883 7.8 -20.5°
